Terminal Aerodrome Forecast
Issued by NWS Detroit/Pontiac, MI

Home | Current Version | Previous Version | Text Only | Print | Product List | Glossary On
Versions: 1 2 3 4 5 6 7 8 9 10 11 12 13 14 15
000
FTUS43 KDTX 291700
TAFFNT
TAF
KFNT 291736Z 2918/3018 14007KT P6SM SCT050 BKN080 OVC150
     FM301300 19011KT P6SM SCT040 BKN060 OVC100
      TEMPO 3015/3018 5SM -SHRA OVC040=

USA.gov is the U.S. government's official web portal to all federal, state and local government web resources and services.